This demonstration page uses our WeatherBlox Daily Observations layout. Learn more.

Left ArrowRight Arrow

Hourly Observations for January 21, 2016

Temp ( °F °C ) Dew Point ( °F °C ) Humidity (%) Winds ( mph kmh ) Pressure ( in mb ) Visibility ( mi km ) Precip ( " mm )
12:01 am 00:01 Cloudy with Light Snow 27 -2.8 23 -5 85 85 ESE 7 11 30.18 1022 3 5 0.00 0.03
12:27 am 00:27 Cloudy with Light Snow 27 -3 23 -5 86 86 ESE 7 11 30.18 1022 3 4 0.00 0.00
12:38 am 00:38 Cloudy with Light Snow 27 -3 23 -5 86 86 ESE 8 13 30.18 1022 4 6 0.00 0.00
12:53 am 00:53 Cloudy with Light Snow 26 -3.3 23 -5 88 88 SE 8 13 30.12 1020 4 6 0.00 0.03
1:00 am 01:00 Cloudy with Light Snow 27 -3 23 -5 86 86 ESE 8 13 30.18 1022 3 4 0.00 0.00
1:11 am 01:11 Cloudy with Light Snow 26 -3.3 23 -5 88 88 ESE 9 15 30.18 1022 2 2 0.00 0.03
1:21 am 01:21 Cloudy with Light Snow 26 -3.3 23 -5 88 88 SE 9 15 30.18 1022 3 4 0.00 0.03
1:28 am 01:28 Cloudy with Light Snow 27 -3 23 -5 86 86 SE 7 11 30.18 1022 3 4 0.00 0.00
1:53 am 01:53 Cloudy with Light Snow 26 -3.3 23 -5 88 88 ESE 5 7 30.12 1020 3 4 0.00 0.03
2:12 am 02:12 Cloudy with Light Snow 26 -3.3 23 -5 88 88 SE 7 11 30.18 1022 2 3 0.00 0.03
2:53 am 02:53 Cloudy with Light Snow 25 -3.9 22 -5.6 88 88 ESE 7 11 30.13 1020 3 5 0.00 0.03
3:48 am 03:48 Cloudy with Mist and Fog 25 -4 21 -6 86 86 ENE 3 6 30.21 1023 6 10 0.00 0.00
3:53 am 03:53 Cloudy with Mist and Fog 25 -3.9 22 -5.6 88 88 ENE 5 7 30.15 1021 6 10 0.00 0.03
4:39 am 04:39 Cloudy with Mist and Fog 25 -3.9 22 -5.6 88 88 NE 3 6 30.21 1023 5 8 0.00 0.00
4:53 am 04:53 Cloudy with Mist and Fog 25 -3.9 23 -5 92 92 NNE 5 7 30.16 1021 4 6 0.00 0.00
5:18 am 05:18 Cloudy with Mist and Fog 25 -4 21 -6 86 86 NE 6 9 30.21 1023 5 8 0.00 0.00
5:53 am 05:53 Cloudy with Mist and Fog 25 -3.9 22 -5.6 88 88 NNE 5 7 30.19 1022 4 6 0.00 0.00
6:53 am 06:53 Cloudy with Light Snow 25 -3.9 22 -5.6 88 88 NNE 5 7 30.22 1023 3 4 0.00 0.03
7:19 am 07:19 Cloudy with Light Snow 25 -3.9 22 -5.6 88 88 NNE 5 7 30.27 1025 3 5 0.00 0.03
7:49 am 07:49 Cloudy with Light Snow 25 -4 21 -6 86 86 NNE 5 7 30.30 1026 2 3 0.00 0.03
7:53 am 07:53 Cloudy with Light Snow 25 -3.9 22 -5.6 88 88 NNE 5 7 30.24 1024 2 3 0.00 0.03
8:33 am 08:33 Cloudy with Light Snow 26 -3.3 23 -5 88 88 N 5 7 30.27 1025 2 3 0.00 0.03
8:53 am 08:53 Cloudy with Light Snow 26 -3.3 23 -5 88 88 NNE 7 11 30.27 1025 2 3 0.00 0.03
9:09 am 09:09 Cloudy with Mist and Fog 26 -3.3 23 -5 88 88 NNE 8 13 30.30 1026 3 5 0.00 0.03
9:16 am 09:16 Cloudy with Mist and Fog 27 -3 23 -5 86 86 NNE 8 13 30.30 1026 3 5 0.00 0.00
9:29 am 09:29 Cloudy with Mist and Fog 26 -3.3 24 -4.4 92 92 NNE 6 9 30.30 1026 3 4 0.00 0.03
9:40 am 09:40 Cloudy with Mist and Fog 27 -3 25 -4 93 93 NNE 7 11 30.30 1026 2 2 0.00 0.00
9:53 am 09:53 Cloudy with Mist and Fog 26 -3.3 24 -4.4 92 92 N 8 13 30.29 1026 1 2 0.00 0.03
10:10 am 10:10 Cloudy with Mist and Fog 27 -3 25 -4 93 93 N 9 15 30.36 1028 1 1 0.00 0.00
10:44 am 10:44 Cloudy with Mist and Fog 27 -3 25 -4 93 93 N 9 15 30.36 1028 1 2 0.00 0.00
10:53 am 10:53 Cloudy with Mist and Fog 27 -2.8 24 -4.4 89 89 N 7 11 30.32 1027 1 2 0.00 0.00
11:30 am 11:30 Cloudy with Mist and Fog 27 -3 25 -4 93 93 NNE 8 13 30.39 1029 1 1 0.00 0.00
12:24 pm 12:24 Cloudy with Mist and Fog 28 -2 27 -3 93 93 N 10 17 30.33 1027 1 2 0.00 0.00
12:53 pm 12:53 Cloudy with Mist and Fog 28 -2.2 26 -3.3 92 92 NE 6 9 30.32 1027 1 2 0.00 0.00
1:49 pm 13:49 Cloudy with Mist and Fog 28 -2 27 -3 93 93 NNE 7 11 30.33 1027 1 1 0.00 0.00
1:53 pm 13:53 Cloudy with Mist and Fog 28 -2.2 26 -3.3 92 92 NNE 6 9 30.31 1026 1 1 0.00 0.00
2:53 pm 14:53 Cloudy with Freezing Fog 28 -2.2 26 -3.3 92 92 ENE 6 9 30.31 1026 0 0 0.00 0.00
3:53 pm 15:53 Cloudy with Freezing Fog 28 -2.2 26 -3.3 92 92 NNE 8 13 30.31 1027 1 1 0.00 0.00
4:53 pm 16:53 Cloudy with Freezing Fog 28 -2.2 26 -3.3 92 92 NNE 8 13 30.33 1027 1 1 0.00 0.00
5:00 pm 17:00 Cloudy with Light Freezing Rain 29 -1.7 26 -3.3 89 89 N 16 26 30.36 1028 1 1 0.00 0.03
5:06 pm 17:06 Cloudy with Mist and Fog 28 -2.2 26 -3.3 92 92 N 17 28 30.36 1028 1 2 0.00 0.03
5:53 pm 17:53 Cloudy with Mist and Fog 28 -2.2 25 -3.9 88 88 N 16 26 30.35 1028 3 4 0.00 0.03
6:00 pm 18:00 Cloudy with Mist and Fog 28 -2 25 -4 86 86 N 15 24 30.36 1028 3 5 0.00 0.00
6:53 pm 18:53 Cloudy with Mist and Fog 27 -2.8 25 -3.9 92 92 N 13 20 30.37 1029 3 4 0.00 0.00
7:45 pm 19:45 Cloudy with Mist and Fog 26 -3.3 24 -4.4 92 92 N 15 24 30.45 1031 4 6 0.00 0.00
7:53 pm 19:53 Cloudy with Mist and Fog 26 -3.3 24 -4.4 92 92 N 15 24 30.39 1029 5 8 0.00 0.00
8:01 pm 20:01 Cloudy with Mist and Fog 26 -3.3 24 -4.4 92 92 N 12 19 30.45 1031 5 8 0.00 0.00
8:53 pm 20:53 Cloudy with Mist and Fog 26 -3.3 23 -5 88 88 N 13 20 30.40 1030 6 10 0.00 0.00
9:04 pm 21:04 Cloudy with Mist and Fog 27 -3 23 -5 86 86 N 10 17 30.45 1031 6 10 0.00 0.00
9:38 pm 21:38 Cloudy 27 -3 21 -6 80 80 N 10 17 30.45 1031 7 11 0.00 0.00
9:48 pm 21:48 Cloudy with Mist and Fog 25 -4 21 -6 86 86 N 9 15 30.45 1031 6 10 0.00 0.00
9:53 pm 21:53 Cloudy with Mist and Fog 25 -3.9 22 -5.6 88 88 NNE 9 15 30.41 1030 6 10 0.00 0.03
10:53 pm 22:53 Cloudy 24 -4.4 20 -6.7 84 84 NE 9 15 30.42 1030 8 13 0.00 0.00
11:53 pm 23:53 Cloudy 23 -5 20 -6.7 88 88 NNE 8 13 30.41 1030 8 13 0.00 0.00

Powered by AerisWeather